Kirksville, MO

8:54 PM CST on February 22, 2018 (GMT -0600)
Kirksville Regional

Weather History for KIRK - September, 2013

Change the Weather History Date:

Thursday, September 5, 2013

  Actual Average Record
Temperature  
Mean Temperature 76 °F 69 °F  
Max Temperature 92 °F 80 °F 100 °F (1925)
Min Temperature 59 °F 58 °F 41 °F (1974)
Degree Days  
Heating Degree Days 0 1  
Month to date heating degree days 0 5  
Since 1 July heating degree days 13 12  
Cooling Degree Days 11 5  
Month to date cooling degree days 37 27  
Year to date cooling degree days 847 871  
Growing Degree Days 25 (Base 50)    
Moisture  
Dew Point 59 °F    
Average Humidity 63    
Maximum Humidity 93    
Minimum Humidity 32    
Precipitation  
Precipitation 0.00 in 0.16 in 1.74 in (1971)
Month to date precipitation T 0.76  
Year to date precipitation 29.89 28.17  
Sea Level Pressure  
Sea Level Pressure 30.16 in    
Wind  
Wind Speed 3 mph (ENE)    
Max Wind Speed 12 mph    
Max Gust Speed 14 mph    
Visibility 10 miles    
Events      
T = Trace of Precipitation, MM = Missing Value Source: NWS Daily Summary

Daily Weather History Graph

Daily Weather History Graph

Search for Another Location

Airport or City:

Trip Planner

Search our weather history database for the weather conditions in past years. The results will help you decide how hot, cold, wet, or windy it might be!

Date:

Astronomy

Sep. 05, 2013 Rise Set
Actual Time 6:41 AM CDT 7:34 PM CDT
Civil Twilight 6:14 AM CDT 8:02 PM CDT
Nautical Twilight 5:41 AM CDT 8:35 PM CDT
Astronomical Twilight 5:07 AM CDT 9:08 PM CDT
Moon 6:54 AM CDT (9/5) 7:26 PM CDT (9/5)
Length of Visible Light 13h 48m
Length of Day
12h 53m
New Moon, 0% of the Moon is Illuminated
Sep 5
New Moon
Sep 12
First Quarter
Sep 19
Full
Sep 26
Last Quarter
Oct 4
New

Hourly Weather History & Observations

Time (CDT) Temp. Heat Index Dew Point Humidity Pressure Visibility Wind Dir Wind Speed Gust Speed Precip Events Conditions
12:55 AM 63.0 °F - 55.9 °F 78% 30.15 in 10.0 mi Calm Calm - N/A   Clear
1:55 AM 62.1 °F - 57.0 °F 84% 30.15 in 10.0 mi SSW 3.5 mph - N/A   Clear
2:55 AM 62.1 °F - 57.0 °F 84% 30.15 in 10.0 mi Calm Calm - N/A   Clear
3:55 AM 61.0 °F - 57.9 °F 90% 30.15 in 10.0 mi West 3.5 mph - N/A   Clear
4:55 AM 61.0 °F - 57.9 °F 90% 30.15 in 10.0 mi WNW 3.5 mph - N/A   Clear
5:55 AM 59.0 °F - 57.0 °F 93% 30.17 in 10.0 mi Calm Calm - N/A   Clear
6:55 AM 59.0 °F - 57.0 °F 93% 30.18 in 10.0 mi Calm Calm - N/A   Clear
7:55 AM 69.1 °F - 62.1 °F 78% 30.19 in 10.0 mi WNW 3.5 mph - N/A   Clear
8:55 AM 75.9 °F - 63.0 °F 64% 30.19 in 10.0 mi NW 4.6 mph - N/A   Clear
9:55 AM 81.0 °F 82.2 °F 63.0 °F 54% 30.21 in 10.0 mi NW 6.9 mph - N/A   Clear
10:55 AM 86.0 °F 86.8 °F 63.0 °F 46% 30.21 in 10.0 mi Variable 5.8 mph - N/A   Clear
11:55 AM 89.1 °F 89.0 °F 61.0 °F 39% 30.20 in 10.0 mi NNE 5.8 mph - N/A   Clear
12:55 PM 91.0 °F 90.0 °F 57.9 °F 33% 30.18 in 10.0 mi East 4.6 mph - N/A   Clear
1:55 PM 88.0 °F 87.1 °F 59.0 °F 37% 30.17 in 10.0 mi NE 6.9 mph - N/A   Partly Cloudy
2:55 PM 90.0 °F 88.6 °F 57.0 °F 33% 30.15 in 10.0 mi ENE 8.1 mph - N/A   Clear
3:55 PM 89.1 °F 87.1 °F 55.0 °F 31% 30.15 in 10.0 mi SE 5.8 mph - N/A   Clear
4:55 PM 88.0 °F 86.1 °F 55.0 °F 32% 30.14 in 10.0 mi SE 3.5 mph - N/A   Clear
5:55 PM 87.1 °F 85.7 °F 55.9 °F 35% 30.14 in 10.0 mi SSE 5.8 mph - N/A   Clear
6:55 PM 82.0 °F 83.0 °F 62.1 °F 51% 30.14 in 10.0 mi SSE 3.5 mph - N/A   Clear
7:55 PM 75.9 °F - 60.1 °F 58% 30.14 in 10.0 mi Calm Calm - N/A   Clear
8:55 PM 69.1 °F - 61.0 °F 75% 30.15 in 10.0 mi Calm Calm - N/A   Clear
9:55 PM 66.9 °F - 60.1 °F 79% 30.16 in 10.0 mi Calm Calm - N/A   Clear
10:55 PM 64.9 °F - 60.1 °F 84% 30.17 in 10.0 mi Calm Calm - N/A   Clear
11:55 PM 63.0 °F - 59.0 °F 87% 30.16 in 10.0 mi Calm Calm - N/A   Clear